Location: ???? ?????
(30.0052°N, 31.2891°E)
Time: 21:04:18
(UTC+00:00)

COSMOS 2441 - Pass Details

Date: 26 May 2022
Orbit: 706 x 732 km, 98.1° (Epoch: 05 July)

Event Time Altitude Azimuth Distance (km) Brightness Sun altitude
Rises 00:36:20 0° 9° (N) 3,136 8.5 -25.4°
Reaches altitude 10° 00:38:38 10° 7° (N) 2,208 7.6 -25.0°
Maximum altitude 00:43:27 71° 284° (WNW) 757 4.3 -24.3°
Enters shadow 00:43:37 70° 267° (W) 760 4.2 -24.3°
